This demonstration page uses our WeatherBlox Daily Observations layout. Learn more.

Left ArrowRight Arrow

40.97296, -117.73568

Hourly Observations for May 11, 2022

Temp ( °F °C ) Dew Point ( °F °C ) Humidity (%) Winds ( mph kmh ) Pressure ( in mb ) Visibility ( mi km ) Precip ( " mm )
12:56 am 00:56 Cloudy 38 3.3 28 -2.2 68 68 NNE 7 11 30.08 1019 10 16 0.00 0.00
1:56 am 01:56 Cloudy 35 1.7 29 -1.7 78 78 NW 6 9 30.07 1018 10 16 0.00 0.00
2:56 am 02:56 Cloudy 34 1.1 29 -1.7 82 82 NW 5 7 30.07 1018 10 16 0.00 0.00
3:56 am 03:56 Cloudy 33 0.6 28 -2.2 82 82 NW 5 7 30.07 1018 10 16 0.00 0.00
4:56 am 04:56 Cloudy 33 0.6 28 -2.2 82 82 WNW 8 13 30.06 1018 10 16 0.00 0.00
6:56 am 06:56 Cloudy 34 1.1 29 -1.7 82 82 NW 12 19 30.08 1019 10 16 0.00 0.00
7:56 am 07:56 Cloudy 36 2.2 29 -1.7 76 76 NW 7 11 30.09 1019 10 16 0.00 0.00
8:56 am 08:56 Cloudy 38 3.3 29 -1.7 70 70 NNW 7 11 30.10 1019 10 16 0.00 0.00
9:51 am 09:51 Cloudy with Light Snow 37 3 30 -1 75 75 N 6 9 30.16 1021 4 6 0.00 0.00
9:56 am 09:56 Cloudy with Light Snow 37 2.8 31 -0.6 79 79 E 5 7 30.11 1020 3 5 0.00 0.00
10:04 am 10:04 Cloudy with Light Snow 37 2.8 32 0 82 82 Calm 30.16 1021 2 3 0.01 0.25
10:23 am 10:23 Cloudy with Light Snow 37 2.8 33 0.6 86 86 E 3 6 30.16 1021 3 5 0.01 0.25
10:31 am 10:31 Cloudy with Light Snow 37 2.8 34 1.1 89 89 E 6 9 30.16 1021 6 10 0.01 0.25
10:56 am 10:56 Cloudy 40 4.4 35 1.7 83 83 E 6 9 30.11 1020 10 16 0.02 0.51
11:10 am 11:10 Cloudy 43 6 34 1 71 71 ENE 7 11 30.11 1020 10 16 0.00 0.00
11:56 am 11:56 Cloudy with Light Rain 43 6.1 32 0 65 65 Calm 30.10 1019 10 16 0.00 0.00
12:56 pm 12:56 Cloudy 44 6.7 28 -2.2 53 53 ENE 15 24 30.09 1019 10 16 0.00 0.00
1:56 pm 13:56 Cloudy 50 10 24 -4.4 36 36 N 12 19 30.08 1019 10 16 0.00 0.00
2:56 pm 14:56 Cloudy 50 10 27 -2.8 41 41 NNW 7 11 30.08 1019 10 16 0.00 0.00
3:56 pm 15:56 Sunny 54 12.2 21 -6.1 28 28 NW 12 19 30.06 1018 10 16 0.00 0.00
4:26 pm 16:26 Mostly Cloudy 50 10 25 -3.9 38 38 NNE 15 24 30.03 1017 10 16 0.00 0.00
4:56 pm 16:56 Mostly Sunny 52 11.1 22 -5.6 31 31 VRB 5 7 30.09 1019 10 16 0.00 0.00
5:56 pm 17:56 Mostly Cloudy 54 12.2 22 -5.6 29 29 NW 14 22 30.08 1019 10 16 0.00 0.00
6:56 pm 18:56 Sunny 52 11.1 19 -7.2 27 27 WNW 10 17 30.09 1019 10 16 0.00 0.00
7:56 pm 19:56 Sunny 46 7.8 22 -5.6 38 38 W 5 7 30.11 1020 10 16 0.00 0.00
8:56 pm 20:56 Clear 38 3.3 21 -6.1 51 51 W 8 13 30.14 1021 10 16 0.00 0.00
9:56 pm 21:56 Clear 41 5 19 -7.2 41 41 Calm 30.16 1021 10 16 0.00 0.00
10:56 pm 22:56 Clear 32 0 18 -7.8 56 56 Calm 30.18 1022 10 16 0.00 0.00
11:56 pm 23:56 Clear 32 0 25 -3.9 75 75 S 9 15 30.18 1022 10 16 0.00 0.00

Powered by AerisWeather